Flag for Bosnia-Herzegovina Weather past 2 weeks in Tuzla, Bosnia-Herzegovina

Now
61 °F

Passing clouds.


Feels Like: 61 °F
Forecast: 50 / 75 °F
Wind: 2 mph from North

Location: Tuzla

Current Time: Apr 25, 2015 at 8:30:25 PM

Latest Report: Apr 25, 2015 at 8:00 PM


Visibility: N/A

Pressure: 29.95 "Hg

Humidity: 55%

Dew point: 45 °F

Location of TuzlaLocation

Historic Weather in Tuzla — Graph

°F

Tuzla temperature yesterday

Maximum temperature yesterday: 70 °F (at 11:00 AM)
Minimum temperature yesterday: 45 °F (at 6:30 AM)
Average temperature yesterday: 61 °F

Past Weeks' High & Low Weather Summary

 TemperatureHumidityPressure
High81 °F (Apr 16, 2:00 PM)100% (Apr 11, 6:00 AM)32.43 "Hg (Apr 11, 6:00 AM)
Low28 °F (Apr 20, 6:00 AM)15% (Apr 11, 5:00 PM)29.86 "Hg (Apr 18, 6:00 AM)
Average59 °F53%30.14 "Hg
* Reported Apr 11 6:00 AM — Apr 25 7:00 PM, Tuzla, Weather by CustomWeather, © 2015

Note: Actual official high and low records may vary slightly from our data, if they occured in-between our weather recording intervals... More about our weather records

Advertising

Tuzla weather history for previous 24 hours

 ConditionsComfort  
Time TempWeatherWind HumidityBarometerVisibility
7:00 PM
Sat, Apr 25
68 °FPassing clouds.3 mph40%29.92 "HgN/A
6:00 PM73 °FPassing clouds.1 mph27%29.95 "HgN/A
5:00 PM72 °FPassing clouds.3 mph33%29.95 "HgN/A
4:00 PM72 °FPartly sunny.3 mph33%29.95 "HgN/A
3:00 PM72 °FScattered clouds.3 mph36%29.98 "HgN/A
2:00 PM70 °FPartly sunny.5 mph35%30.01 "HgN/A
1:00 PM68 °FPartly sunny.5 mph38%30.04 "HgN/A
12:00 PM68 °FScattered clouds.3 mph40%30.04 "HgN/A
11:30 AM64 °FScattered clouds.3 mph40%30.07 "HgN/A
11:00 AM64 °FPassing clouds.3 mph43%30.07 "HgN/A
10:30 AM63 °FPassing clouds.2 mph49%30.07 "HgN/A
10:00 AM61 °FPassing clouds.3 mph52%30.07 "HgN/A
9:30 AM63 °FPassing clouds.1 mph52%30.07 "HgN/A
9:00 AM57 °FPassing clouds.1 mph77%30.07 "HgN/A
8:30 AM52 °FPassing clouds.2 mph100%30.09 "HgN/A
8:00 AM48 °FSunny.3 mph100%30.09 "Hg10 mi
7:30 AM46 °FSunny.3 mph100%30.07 "Hg10 mi
7:00 AM43 °FSunny.2 mph100%30.07 "Hg10 mi
6:30 AM41 °FPassing clouds.1 mph100%30.07 "HgN/A
8:00 PM
Fri, Apr 24
57 °FLight rain. Partly sunny.6 mph51%30.04 "HgN/A
Weather by CustomWeather, © 2015

See weather overviewHow to use our weather pages